Location: Anuling
(14.1239°N, 120.8922°E)
Time: 04:52:53
(UTC+00:00)

Cosmos 1741 Rocket - Pass Details

Date: 14 January 2026
Orbit: 758 x 777 km, 74.0° (Epoch: 10 February)

Event Time Altitude Azimuth Distance (km) Brightness Sun altitude
Rises 10:56:33 0° 353° (N) 3,208 7.1 -16.7°
Reaches altitude 10° 10:58:57 10° 357° (N) 2,281 6.3 -17.3°
Maximum altitude 11:04:03 59° 76° (ENE) 871 3.9 -18.5°
Drops below altitude 10° 11:09:07 10° 156° (SSE) 2,279 6.4 -19.6°
Sets 11:11:31 0° 159° (SSE) 3,204 7.2 -20.2°
